Time,TemperatureF,DewpointF,PressureIn,WindDirection,WindDirectionDegrees,WindSpeedMPH,WindSpeedGustMPH,Humidity,HourlyPrecipIn,Conditions,Clouds,dailyrainin,SolarRadiationWatts/m^2,SoftwareType,DateUTC
2013-11-23 00:03:00,56.0,53.0,-100.00,North,8,3.0,9.0,91,0.00,,,0.10,0.000000,,2013-11-23 05:03:00,
2013-11-23 00:43:00,55.0,52.0,-100.00,NNW,338,5.0,9.0,91,0.00,,,0.10,0.000000,,2013-11-23 05:43:00,
2013-11-23 00:53:00,55.0,52.0,-100.00,NNW,338,5.0,9.0,91,0.00,,,0.10,0.000000,,2013-11-23 05:53:00,
2013-11-23 01:02:00,55.0,52.0,-100.00,NNW,338,5.0,9.0,91,0.00,,,0.10,0.000000,,2013-11-23 06:02:00,
2013-11-23 01:42:00,54.0,51.0,-100.00,NNE,17,5.0,15.0,90,0.00,,,0.10,0.000000,,2013-11-23 06:42:00,
2013-11-23 01:53:00,54.0,51.0,-100.00,NNE,17,5.0,15.0,90,0.00,,,0.10,0.000000,,2013-11-23 06:53:00,
2013-11-23 02:01:00,54.0,51.0,-100.00,NNE,17,5.0,15.0,90,0.00,,,0.10,0.000000,,2013-11-23 07:01:00,
2013-11-23 02:42:00,52.0,48.0,-100.00,South,173,2.0,13.0,87,0.00,,,0.10,0.000000,,2013-11-23 07:42:00,
2013-11-23 02:52:00,52.0,48.0,-100.00,South,173,2.0,13.0,87,0.00,,,0.10,0.000000,,2013-11-23 07:52:00,
2013-11-23 03:01:00,52.0,48.0,-100.00,South,173,2.0,13.0,87,0.00,,,0.10,0.000000,,2013-11-23 08:01:00,
2013-11-23 03:42:00,51.0,48.0,-100.00,WNW,284,3.0,10.0,90,0.00,,,0.10,0.000000,,2013-11-23 08:42:00,
2013-11-23 03:52:00,51.0,48.0,-100.00,WNW,284,3.0,10.0,90,0.00,,,0.10,0.000000,,2013-11-23 08:52:00,
2013-11-23 04:02:00,51.0,48.0,-100.00,WNW,284,3.0,10.0,90,0.00,,,0.10,0.000000,,2013-11-23 09:02:00,
2013-11-23 04:43:00,49.0,47.0,-100.00,NNW,337,3.0,5.0,94,0.00,,,0.10,0.000000,,2013-11-23 09:43:00,
2013-11-23 04:54:00,49.0,47.0,-100.00,NNW,337,3.0,5.0,94,0.00,,,0.10,0.000000,,2013-11-23 09:54:00,
2013-11-23 05:03:00,49.0,47.0,-100.00,NNW,337,3.0,5.0,94,0.00,,,0.10,0.000000,,2013-11-23 10:03:00,
2013-11-23 05:42:00,49.0,48.0,-100.00,North,355,4.0,11.0,95,0.00,,,0.10,0.000000,,2013-11-23 10:42:00,
2013-11-23 05:52:00,49.0,48.0,-100.00,North,355,4.0,11.0,95,0.00,,,0.10,0.000000,,2013-11-23 10:52:00,
2013-11-23 06:02:00,49.0,48.0,-100.00,North,355,4.0,11.0,95,0.00,,,0.10,0.000000,,2013-11-23 11:02:00,
2013-11-23 06:43:00,49.0,47.0,-100.00,East,95,3.0,13.0,92,0.00,,,0.10,0.000000,,2013-11-23 11:43:00,
2013-11-23 06:53:00,49.0,47.0,-100.00,East,95,3.0,13.0,92,0.00,,,0.10,0.000000,,2013-11-23 11:53:00,
2013-11-23 07:02:00,49.0,47.0,-100.00,East,95,3.0,13.0,92,0.00,,,0.10,0.000000,,2013-11-23 12:02:00,
2013-11-23 07:42:00,47.0,45.0,-100.00,SW,233,4.0,14.0,91,0.00,,,0.10,0.000000,,2013-11-23 12:42:00,
2013-11-23 07:52:00,47.0,45.0,-100.00,SW,233,4.0,14.0,91,0.00,,,0.10,0.000000,,2013-11-23 12:52:00,
2013-11-23 08:01:00,47.0,45.0,-100.00,SW,233,4.0,14.0,91,0.00,,,0.10,0.000000,,2013-11-23 13:01:00,
2013-11-23 08:42:00,45.0,42.0,-100.00,SE,124,5.0,12.0,88,0.00,,,0.10,9.000000,,2013-11-23 13:42:00,
2013-11-23 08:52:00,45.0,42.0,-100.00,SE,124,5.0,12.0,88,0.00,,,0.10,9.000000,,2013-11-23 13:52:00,
2013-11-23 09:02:00,45.0,42.0,-100.00,SE,124,5.0,12.0,88,0.00,,,0.10,9.000000,,2013-11-23 14:02:00,
2013-11-23 09:42:00,44.0,41.0,-100.00,South,179,4.0,13.0,89,0.00,,,0.10,29.000000,,2013-11-23 14:42:00,
2013-11-23 09:52:00,44.0,41.0,-100.00,South,179,4.0,13.0,89,0.00,,,0.10,29.000000,,2013-11-23 14:52:00,
2013-11-23 10:02:00,44.0,41.0,-100.00,South,179,4.0,13.0,89,0.00,,,0.10,29.000000,,2013-11-23 15:02:00,
2013-11-23 10:43:00,45.0,42.0,-100.00,NW,322,4.0,11.0,88,0.00,,,0.10,75.000000,,2013-11-23 15:43:00,
2013-11-23 10:54:00,45.0,42.0,-100.00,NW,322,4.0,11.0,88,0.00,,,0.10,75.000000,,2013-11-23 15:54:00,
2013-11-23 11:04:00,45.0,42.0,-100.00,NW,322,4.0,11.0,88,0.00,,,0.10,75.000000,,2013-11-23 16:04:00,
2013-11-23 11:43:00,44.0,40.0,-100.00,North,351,6.0,13.0,87,0.00,,,0.10,93.000000,,2013-11-23 16:43:00,
2013-11-23 11:53:00,44.0,40.0,-100.00,North,351,6.0,13.0,87,0.00,,,0.10,93.000000,,2013-11-23 16:53:00,
2013-11-23 12:03:00,44.0,40.0,-100.00,North,351,6.0,13.0,87,0.00,,,0.10,93.000000,,2013-11-23 17:03:00,
2013-11-23 12:42:00,42.0,40.0,-100.00,SW,216,5.0,19.0,91,0.00,,,0.10,142.000000,,2013-11-23 17:42:00,
2013-11-23 12:52:00,42.0,40.0,-100.00,SW,216,5.0,19.0,91,0.00,,,0.10,142.000000,,2013-11-23 17:52:00,
2013-11-23 13:02:00,42.0,40.0,-100.00,SW,216,5.0,19.0,91,0.00,,,0.10,142.000000,,2013-11-23 18:02:00,
2013-11-23 13:42:00,42.0,40.0,-100.00,ENE,72,5.0,13.0,92,0.00,,,0.10,121.000000,,2013-11-23 18:42:00,
2013-11-23 13:52:00,42.0,40.0,-100.00,ENE,72,5.0,13.0,92,0.00,,,0.10,121.000000,,2013-11-23 18:52:00,
2013-11-23 14:01:00,42.0,40.0,-100.00,ENE,72,5.0,13.0,92,0.00,,,0.10,121.000000,,2013-11-23 19:01:00,
2013-11-23 14:42:00,40.0,38.0,-100.00,NNE,12,4.0,11.0,92,0.00,,,0.10,103.000000,,2013-11-23 19:42:00,
2013-11-23 14:52:00,40.0,38.0,-100.00,NNE,12,4.0,11.0,92,0.00,,,0.10,103.000000,,2013-11-23 19:52:00,
2013-11-23 15:02:00,40.0,38.0,-100.00,NNE,12,4.0,11.0,92,0.00,,,0.10,103.000000,,2013-11-23 20:02:00,
2013-11-23 15:42:00,40.0,37.0,-100.00,ESE,118,3.0,13.0,88,0.00,,,0.10,58.000000,,2013-11-23 20:42:00,
2013-11-23 15:53:00,40.0,37.0,-100.00,ESE,118,3.0,13.0,88,0.00,,,0.10,58.000000,,2013-11-23 20:53:00,
2013-11-23 16:02:00,40.0,37.0,-100.00,ESE,118,3.0,13.0,88,0.00,,,0.10,58.000000,,2013-11-23 21:02:00,
2013-11-23 16:43:00,42.0,36.0,-100.00,North,351,4.0,12.0,78,0.00,,,0.10,124.000000,,2013-11-23 21:43:00,
2013-11-23 16:53:00,42.0,36.0,-100.00,North,351,4.0,12.0,78,0.00,,,0.10,124.000000,,2013-11-23 21:53:00,
2013-11-23 17:03:00,42.0,36.0,-100.00,North,351,4.0,12.0,78,0.00,,,0.10,124.000000,,2013-11-23 22:03:00,
2013-11-23 17:43:00,40.0,32.0,-100.00,NNW,328,7.0,16.0,74,0.00,,,0.05,81.000000,,2013-11-23 22:43:00,
2013-11-23 17:53:00,40.0,32.0,-100.00,NNW,328,7.0,16.0,74,0.00,,,0.05,81.000000,,2013-11-23 22:53:00,
2013-11-23 18:02:00,40.0,32.0,-100.00,NNW,328,7.0,16.0,74,0.00,,,0.05,81.000000,,2013-11-23 23:02:00,
2013-11-23 18:42:00,39.0,32.0,-100.00,NW,326,6.0,15.0,77,0.00,,,0.02,3.000000,,2013-11-23 23:42:00,
2013-11-23 18:53:00,39.0,32.0,-100.00,NW,326,6.0,15.0,77,0.00,,,0.02,3.000000,,2013-11-23 23:53:00,
2013-11-23 19:02:00,39.0,32.0,-100.00,NW,326,6.0,15.0,77,0.00,,,0.02,3.000000,,2013-11-24 00:02:00,
2013-11-23 19:42:00,39.0,29.0,-100.00,North,352,6.0,18.0,66,0.00,,,0.00,0.000000,,2013-11-24 00:42:00,
2013-11-23 19:52:00,39.0,29.0,-100.00,North,352,6.0,18.0,66,0.00,,,0.00,0.000000,,2013-11-24 00:52:00,
2013-11-23 20:02:00,39.0,29.0,-100.00,North,352,6.0,18.0,66,0.00,,,0.00,0.000000,,2013-11-24 01:02:00,
2013-11-23 20:43:00,39.0,25.0,-100.00,NNE,22,5.0,17.0,57,0.01,,,0.01,0.000000,,2013-11-24 01:43:00,
2013-11-23 20:53:00,39.0,25.0,-100.00,NNE,22,5.0,17.0,57,0.01,,,0.01,0.000000,,2013-11-24 01:53:00,
2013-11-23 21:01:00,39.0,25.0,-100.00,NNE,22,5.0,17.0,57,0.01,,,0.01,0.000000,,2013-11-24 02:01:00,
2013-11-23 21:42:00,36.0,27.0,-100.00,North,4,6.0,14.0,69,0.00,,,0.01,0.000000,,2013-11-24 02:42:00,
2013-11-23 21:52:00,36.0,27.0,-100.00,North,4,6.0,14.0,69,0.00,,,0.01,0.000000,,2013-11-24 02:52:00,
2013-11-23 22:02:00,36.0,27.0,-100.00,North,4,6.0,14.0,69,0.00,,,0.01,0.000000,,2013-11-24 03:02:00,
2013-11-23 22:43:00,35.0,22.0,-100.00,East,88,7.0,13.0,59,0.00,,,0.01,0.000000,,2013-11-24 03:43:00,
2013-11-23 22:54:00,35.0,22.0,-100.00,East,88,7.0,13.0,59,0.00,,,0.01,0.000000,,2013-11-24 03:54:00,
2013-11-23 23:03:00,-999.0,-99.9,-100.00,East,88,7.0,13.0,-999,0.00,,,0.01,0.000000,,2013-11-24 04:03:00,
2013-11-23 23:43:00,33.0,20.0,-100.00,NNE,17,4.0,14.0,59,0.00,,,0.01,0.000000,,2013-11-24 04:43:00,
2013-11-23 23:53:00,33.0,20.0,-100.00,NNE,17,4.0,14.0,59,0.00,,,0.01,0.000000,,2013-11-24 04:53:00,